sat.trackr.live / text

‹ back to catalog

STARLINK-37132

NORAD 68233 · 2026-054B

PAYLOAD ACTIVE UNKNOWN

§ Identity

Operator
Country
US
Launch date
2026-03-17
Launch site
AFETR
Launch vehicle
Mass (kg)
RCS (m²)

Purposes: comms

External: N2YO · Heavens-Above · Gunter

§ Orbital elements

Epoch: 2026-09-19T21:43:03.340992Z

Period
93.85 min
Inclination
53.1587°
Eccentricity
0.0000575
Mean motion
15.34403516 rev/d
Perigee alt
462.3 km
Apogee alt
463.1 km
Semi-major
6,840.8 km
B*
4.0863e-4
RAAN
104.3388°
Arg perigee
97.7364°
Mean anomaly
262.3704°
Rev number
2,887

§ Raw data

STARLINK-371321 68233U 26054B   26262.90489978  .00013456  00000+0  40863-3 0  99932 68233  53.1587 104.3388 0000575  97.7364 262.3704 15.34403516 28874

JSON: /api/v1/satellites/68233 · /tle

For live sub-satellite position, see the globe view (requires WebGL).

§ Visibility from observer

Set your observer location to see the next 7 days of passes ≥ 10°. The values pass through the URL so the page stays shareable.

No JS? Fill the form by hand. The geolocation button needs JavaScript.